NT2C Weather Reports


time (UTC)temp
C
wind
direction
speed
KPH
gust
KPH
rain 1hr
cm
rain 24hr
cm
rain mn
cm
humidity
%
barometer
mb
20260504151025 20 264 6.4 16.1 0.00 0.00 0.00 42 1006.9
20260504150525 20 234 3.2 14.5 0.00 0.00 0.00 43 1006.9
20260504141010 17 218 1.6 16.1 0.00 0.00 0.00 52 1007.1
20260504140509 16 237 3.2 9.7 0.00 0.00 0.00 53 1007.1
20260504130555 13 231 6.4 12.9 0.00 0.00 0.00 58 1007.9
20260504110531 8 218 1.6 4.8 0.00 0.00 0.00 71 1008.1
20260504100519 8 229 0.0 1.6 0.00 0.00 0.00 70 1008.2
20260504090125 8 218 1.6 6.4 0.00 0.00 0.00 68 1008.3
20260504081513 9 219 0.0 4.8 0.00 0.00 0.00 67 1008.4
20260504081015 9 218 0.0 4.8 0.00 0.00 0.00 66 1008.3
20260504080512 9 204 1.6 4.8 0.00 0.00 0.00 66 1008.3
20260504050546 10 205 0.0 3.2 0.00 0.00 0.00 61 1008.5
20260504045548 10 200 0.0 1.6 0.00 0.00 0.00 61 1008.4
20260504045044 9 201 0.0 0.0 0.00 0.00 0.00 62 1008.4
20260504044544 9 201 0.0 1.6 0.00 0.00 0.00 62 1008.3
20260504044044 9 201 0.0 1.6 0.00 0.00 0.00 62 1008.3
20260504043542 9 201 0.0 0.0 0.00 0.00 0.00 63 1008.4
20260504043048 9 201 0.0 0.0 0.00 0.00 0.00 63 1008.4
20260504042544 8 201 0.0 0.0 0.00 0.00 0.00 63 1008.3
20260504042039 8 201 0.0 1.6 0.00 0.00 0.00 64 1008.3
20260504041539 8 201 0.0 1.6 0.00 0.00 0.00 64 1008.4
20260504041037 8 207 0.0 1.6 0.00 0.00 0.00 65 1008.5
20260504040538 8 214 0.0 0.0 0.00 0.00 0.00 67 1008.4
20260504040035 8 214 0.0 0.0 0.00 0.00 0.00 67 1008.4
20260504035535 8 214 0.0 0.0 0.00 0.00 0.00 67 1008.4
20260504035036 7 214 0.0 0.0 0.00 0.00 0.00 67 1008.4
20260504034535 7 214 0.0 1.6 0.00 0.00 0.00 66 1008.5
20260504034034 7 214 0.0 1.6 0.00 0.00 0.00 67 1008.4
20260504033538 7 214 0.0 0.0 0.00 0.00 0.00 68 1008.4
20260504033037 7 214 0.0 0.0 0.00 0.00 0.00 69 1008.3
20260504032534 7 214 0.0 0.0 0.00 0.00 0.00 69 1008.3
20260504032035 7 214 0.0 0.0 0.00 0.00 0.00 67 1008.4
20260504031535 7 214 0.0 0.0 0.00 0.00 0.00 67 1008.4
20260504031034 7 214 0.0 0.0 0.00 0.00 0.00 65 1008.4
20260504030534 7 214 0.0 0.0 0.00 0.00 0.00 65 1008.4
20260504030034 7 214 0.0 0.0 0.00 0.00 0.00 64 1008.4
20260504025533 7 214 0.0 0.0 0.00 0.00 0.00 65 1008.3
20260504025033 8 214 0.0 0.0 0.00 0.00 0.00 66 1008.3
20260504024535 8 214 0.0 0.0 0.00 0.00 0.00 63 1008.3
20260504024033 8 214 0.0 0.0 0.00 0.00 0.00 62 1008.3
20260504023532 8 214 0.0 0.0 0.00 0.00 0.00 62 1008.4
20260504023032 8 214 0.0 0.0 0.00 0.00 0.00 61 1008.3
20260504022532 8 214 0.0 0.0 0.00 0.00 0.00 61 1008.4
20260504022032 8 214 0.0 0.0 0.00 0.00 0.00 60 1008.4
20260504021533 8 214 0.0 0.0 0.00 0.00 0.00 59 1008.2
20260504021031 9 214 0.0 0.0 0.00 0.00 0.00 58 1008.3
20260504020532 9 214 0.0 0.0 0.00 0.00 0.00 59 1008.2
20260504020033 9 214 0.0 0.0 0.00 0.00 0.00 57 1008.2
20260504015531 10 214 0.0 0.0 0.00 0.00 0.00 56 1008.1
20260504015032 10 214 0.0 0.0 0.00 0.00 0.00 56 1008.2
20260504014538 10 214 0.0 0.0 0.00 0.00 0.00 55 1008.2
20260504014032 11 214 0.0 1.6 0.00 0.00 0.00 55 1008.1
20260504013530 11 214 0.0 3.2 0.00 0.00 0.00 54 1008.2
20260504013030 11 193 0.0 3.2 0.00 0.00 0.00 54 1008.1
20260504012533 10 194 0.0 3.2 0.00 0.00 0.00 55 1008.0
20260504012033 10 193 0.0 4.8 0.00 0.00 0.00 56 1007.9
20260504011530 10 207 0.0 4.8 0.00 0.00 0.00 57 1007.8
20260504011029 10 214 0.0 0.0 0.00 0.00 0.00 58 1007.8
20260504010529 10 268 0.0 0.0 0.00 0.00 0.00 55 1007.7
20260504010029 10 268 0.0 0.0 0.00 0.00 0.00 56 1007.6
20260504005530 10 271 0.0 0.0 0.00 0.00 0.00 55 1007.7
20260504005029 10 271 0.0 0.0 0.00 0.00 0.00 57 1007.6
20260504004528 10 271 0.0 0.0 0.00 0.00 0.00 58 1007.6
20260504004030 11 271 0.0 0.0 0.00 0.00 0.00 57 1007.5
20260504003527 11 271 0.0 0.0 0.00 0.00 0.00 55 1007.3
20260504003034 11 271 0.0 0.0 0.00 0.00 0.00 54 1007.3
20260504002528 12 271 0.0 0.0 0.00 0.00 0.00 52 1007.3
20260504002028 12 271 0.0 0.0 0.00 0.00 0.00 50 1007.3
20260504001536 13 271 0.0 0.0 0.00 0.00 0.00 50 1007.3
20260504001028 13 271 0.0 0.0 0.00 0.00 0.00 48 1007.4
20260504000528 14 271 0.0 0.0 0.00 0.00 0.00 45 1007.3
20260504000027 15 271 0.0 0.0 0.00 0.00 0.00 43 1007.2
20260503235526 16 271 0.0 0.0 0.00 0.00 0.00 39 1007.2
20260503235026 16 271 0.0 0.0 0.00 0.00 0.00 37 1007.2
20260503234526 17 271 0.0 0.0 0.00 0.00 0.00 37 1007.1
20260503234026 17 271 0.0 0.0 0.00 0.00 0.00 36 1007.1
20260503233525 17 271 0.0 0.0 0.00 0.00 0.00 34 1006.9
20260503233025 17 271 0.0 1.6 0.00 0.00 0.00 33 1007.0
20260503232525 17 281 0.0 4.8 0.00 0.00 0.00 35 1007.0
20260503232027 17 274 0.0 4.8 0.00 0.00 0.00 34 1006.9
20260503231525 17 290 0.0 4.8 0.00 0.00 0.00 34 1006.9
20260503231023 17 231 0.0 11.3 0.00 0.00 0.00 34 1006.9
20260503230526 17 268 4.8 11.3 0.00 0.00 0.00 32 1006.9
20260503230022 17 240 0.0 9.7 0.00 0.00 0.00 34 1007.0
20260503225522 17 233 1.6 9.7 0.00 0.00 0.00 34 1007.0
20260503225022 17 210 4.8 9.7 0.00 0.00 0.00 33 1007.1
20260503224522 17 281 1.6 6.4 0.00 0.00 0.00 33 1007.0
20260503224022 17 249 0.0 6.4 0.00 0.00 0.00 33 1007.0
20260503223522 17 250 1.6 9.7 0.00 0.00 0.00 33 1007.2
20260503223022 17 262 1.6 11.3 0.00 0.00 0.00 33 1007.3
20260503222521 17 240 4.8 12.9 0.00 0.00 0.00 33 1007.3
20260503222021 17 245 4.8 12.9 0.00 0.00 0.00 34 1007.2
20260503221523 17 283 3.2 16.1 0.00 0.00 0.00 33 1007.3
20260503221021 17 291 4.8 16.1 0.00 0.00 0.00 33 1007.3
20260503220522 17 264 6.4 14.5 0.00 0.00 0.00 33 1007.2
20260503220025 17 299 1.6 11.3 0.00 0.00 0.00 33 1007.1
20260503215519 17 243 3.2 11.3 0.00 0.00 0.00 33 1007.1
20260503215020 17 213 1.6 12.9 0.00 0.00 0.00 35 1007.0
20260503214525 17 312 6.4 14.5 0.00 0.00 0.00 33 1007.2
20260503214018 17 227 0.0 12.9 0.00 0.00 0.00 34 1007.2
20260503213518 17 228 0.0 12.9 0.00 0.00 0.00 35 1007.3
20260503213019 16 278 8.0 16.1 0.00 0.00 0.00 33 1007.3
20260503212516 16 240 8.0 24.1 0.00 0.00 0.00 33 1007.3
20260503212017 16 279 14.5 24.1 0.00 0.00 0.00 33 1007.3
20260503211517 17 237 6.4 14.5 0.00 0.00 0.00 35 1007.3
20260503211015 17 270 4.8 16.1 0.00 0.00 0.00 34 1007.5
20260503210514 17 284 3.2 17.7 0.00 0.00 0.00 34 1007.5
20260503210013 17 295 4.8 17.7 0.00 0.00 0.00 35 1007.5
20260503205512 16 293 4.8 19.3 0.00 0.00 0.00 35 1007.4
20260503205013 16 290 3.2 19.3 0.00 0.00 0.00 35 1007.5
20260503204518 16 203 8.0 20.9 0.00 0.00 0.00 35 1007.5
20260503204013 16 225 6.4 20.9 0.00 0.00 0.00 35 1007.6
20260503203510 16 231 4.8 16.1 0.00 0.00 0.00 36 1007.5
20260503203010 16 8 8.0 16.1 0.00 0.00 0.00 35 1007.6
20260503202509 16 298 1.6 17.7 0.00 0.00 0.00 35 1007.5
20260503202008 16 231 9.7 22.5 0.00 0.00 0.00 35 1007.6
20260503201509 16 271 12.9 22.5 0.00 0.00 0.00 34 1007.7
20260503201006 16 240 4.8 16.1 0.00 0.00 0.00 34 1007.6
20260503200505 16 25 4.8 12.9 0.00 0.00 0.00 35 1007.8
20260503200007 16 288 3.2 19.3 0.00 0.00 0.00 35 1007.9
20260503195504 16 294 3.2 16.1 0.00 0.00 0.00 36 1008.1
20260503195003 16 307 6.4 17.7 0.00 0.00 0.00 35 1008.3
20260503194503 16 240 4.8 14.5 0.00 0.00 0.00 35 1008.4
20260503194003 15 319 3.2 16.1 0.00 0.00 0.00 37 1008.4
20260503193502 16 230 8.0 16.1 0.00 0.00 0.00 35 1008.4
20260503193001 16 262 3.2 20.9 0.00 0.00 0.00 37 1008.6
20260503192501 16 255 9.7 20.9 0.00 0.00 0.00 36 1008.6
20260503192100 16 250 4.8 20.9 0.00 0.00 0.00 39 1008.6
20260503192002 15 343 4.8 20.9 0.00 0.00 0.00 38 1008.8
20260503191602 15 195 6.4 16.1 0.00 0.00 0.00 38 1008.8
20260503191100 15 200 4.8 14.5 0.00 0.00 0.00 36 1008.9
20260503190600 15 236 4.8 16.1 0.00 0.00 0.00 37 1008.9
20260503190059 15 294 6.4 16.1 0.00 0.00 0.00 37 1008.9
20260503185558 15 300 3.2 16.1 0.00 0.00 0.00 37 1008.9
20260503185059 15 233 6.4 17.7 0.00 0.00 0.00 37 1009.0
20260503184605 15 284 9.7 20.9 0.00 0.00 0.00 36 1009.1
20260503184059 15 301 9.7 20.9 0.00 0.00 0.00 35 1009.2
20260503183557 15 303 3.2 20.9 0.00 0.00 0.00 36 1009.2
20260503183057 15 291 9.7 20.9 0.00 0.00 0.00 36 1009.3
20260503182557 15 313 4.8 20.9 0.00 0.00 0.00 37 1009.3
20260503182055 15 302 6.4 17.7 0.00 0.00 0.00 38 1009.2
20260503181556 14 231 8.0 19.3 0.00 0.00 0.00 38 1009.3
20260503181053 15 291 6.4 19.3 0.00 0.00 0.00 39 1009.4
20260503180552 14 323 6.4 17.7 0.00 0.00 0.00 38 1009.5
20260503180104 14 357 6.4 14.5 0.00 0.00 0.00 37 1009.5
20260503175551 13 302 1.6 29.0 0.00 0.00 0.00 37 1009.4
20260503175051 14 266 14.5 29.0 0.00 0.00 0.00 38 1009.6
20260503174550 13 312 9.7 19.3 0.00 0.00 0.00 38 1009.3
20260503174052 14 278 6.4 16.1 0.00 0.00 0.00 38 1009.4
20260503173549 13 349 3.2 16.1 0.00 0.00 0.00 39 1009.4
20260503173059 13 309 3.2 25.7 0.00 0.00 0.00 41 1009.6
20260503172549 13 230 9.7 29.0 0.00 0.00 0.00 39 1009.7
20260503172048 13 204 6.4 19.3 0.00 0.00 0.00 40 1009.6
20260503171548 13 281 6.4 14.5 0.00 0.00 0.00 40 1009.6
20260503171048 13 44 1.6 16.1 0.00 0.00 0.00 42 1009.8
20260503170548 13 297 4.8 17.7 0.00 0.00 0.00 40 1009.7